EW2500 Weather Reports


Display with metric or nautical units.
time (UTC)temp
F
wind
direction
speed
MPH
gust
MPH
rain 1hr
in
rain 24hr
in
rain mn
in
humidity
%
barometer
mb
20180220195042 66 261 2.0 12.0 0.00 0.00 0.00 74 1022.3
20180220194542 65 36 5.0 12.0 0.00 0.00 0.00 74 1022.5
20180220194043 65 234 3.0 11.0 0.00 0.00 0.00 74 1022.6
20180220193546 66 281 5.0 11.0 0.00 0.00 0.00 74 1022.4
20180220193049 65 234 2.0 10.0 0.00 0.00 0.00 74 1022.4
20180220192545 65 161 4.0 10.0 0.00 0.00 0.00 75 1022.4
20180220192054 65 221 2.0 7.0 0.00 0.00 0.00 76 1022.5
20180220191553 65 212 2.0 7.0 0.00 0.00 0.00 76 1022.4
20180220191050 65 285 4.0 7.0 0.00 0.00 0.00 75 1022.4
20180220190548 65 241 2.0 15.0 0.00 0.00 0.00 76 1022.4
20180220190049 65 224 9.0 15.0 0.00 0.00 0.00 76 1022.4
20180220185551 65 236 4.0 11.0 0.00 0.00 0.00 77 1022.3
20180220185054 65 233 3.0 11.0 0.00 0.00 0.00 77 1022.4
20180220184542 64 209 6.0 11.0 0.00 0.00 0.00 77 1022.3
20180220184045 64 192 4.0 9.0 0.00 0.00 0.00 79 1022.3
20180220183546 64 212 4.0 9.0 0.00 0.00 0.00 78 1022.3
20180220183041 64 201 4.0 10.0 0.00 0.00 0.00 79 1022.3
20180220182547 63 222 4.0 14.0 0.00 0.00 0.00 79 1022.4
20180220182053 63 241 6.0 14.0 0.00 0.00 0.00 80 1022.6
20180220181544 62 205 3.0 8.0 0.00 0.00 0.00 82 1022.6
20180220181053 62 268 3.0 6.0 0.00 0.00 0.00 82 1022.5
20180220180556 62 115 1.0 9.0 0.00 0.00 0.00 82 1022.5
20180220180046 61 256 5.0 9.0 0.00 0.00 0.00 83 1022.6
20180220175557 61 295 2.0 8.0 0.00 0.00 0.00 83 1022.7
20180220175052 61 252 3.0 9.0 0.00 0.00 0.00 83 1022.7
20180220174540 60 236 2.0 10.0 0.00 0.00 0.00 86 1023.0
20180220174044 60 157 4.0 10.0 0.00 0.00 0.00 86 1023.0
20180220173559 60 196 4.0 10.0 0.00 0.00 0.00 86 1023.0
20180220173045 59 178 4.0 10.0 0.00 0.00 0.00 88 1023.0
20180220172543 59 247 5.0 11.0 0.00 0.00 0.00 88 1023.1
20180220172055 59 278 1.0 7.0 0.00 0.00 0.00 90 1023.2
20180220171545 58 197 3.0 7.0 0.00 0.00 0.00 90 1023.1
20180220171056 58 253 3.0 8.0 0.00 0.00 0.00 91 1023.1
20180220170548 57 326 3.0 8.0 0.00 0.00 0.00 92 1023.2
20180220170040 57 202 2.0 9.0 0.00 0.00 0.00 93 1023.4
20180220165553 56 206 4.0 9.0 0.00 0.00 0.00 93 1023.5
20180220165041 56 238 3.0 9.0 0.00 0.00 0.00 94 1023.5
20180220164600 55 215 2.0 9.0 0.00 0.00 0.00 94 1023.6
20180220164048 54 223 4.0 10.0 0.00 0.00 0.00 94 1023.6
20180220163544 54 244 6.0 10.0 0.00 0.00 0.00 94 1023.7
20180220163053 53 289 2.0 11.0 0.00 0.00 0.00 94 1023.9
20180220162546 52 292 7.0 11.0 0.00 0.00 0.00 94 1023.8
20180220162056 52 217 6.0 11.0 0.00 0.00 0.00 94 1023.8
20180220161546 52 244 4.0 11.0 0.00 0.00 0.00 94 1023.9
20180220161051 51 200 2.0 10.0 0.00 0.00 0.00 95 1024.0
20180220160541 51 276 6.0 10.0 0.00 0.00 0.00 95 1024.1
20180220160047 51 271 5.0 12.0 0.00 0.00 0.00 95 1024.1
20180220155543 50 269 4.0 12.0 0.00 0.00 0.00 95 1024.1
20180220155051 50 215 5.0 11.0 0.00 0.00 0.00 95 1024.1
20180220154541 50 263 5.0 11.0 0.00 0.00 0.00 95 1024.1
20180220154100 50 277 5.0 11.0 0.00 0.00 0.00 95 1024.1
20180220153555 50 274 3.0 11.0 0.00 0.00 0.00 95 1024.2
20180220153043 50 270 4.0 8.0 0.00 0.00 0.00 95 1024.2
20180220152558 50 277 3.0 8.0 0.00 0.00 0.00 95 1024.1
20180220152042 50 239 2.0 12.0 0.00 0.00 0.00 95 1024.1
20180220151602 49 215 6.0 12.0 0.00 0.00 0.00 95 1024.0
20180220151045 49 249 5.0 10.0 0.00 0.00 0.00 95 1024.0
20180220150602 49 342 5.0 10.0 0.00 0.00 0.00 95 1024.2
20180220150046 49 293 3.0 7.0 0.00 0.00 0.00 95 1024.2
20180220145550 49 225 2.0 8.0 0.00 0.00 0.00 95 1024.1
20180220145044 49 292 3.0 9.0 0.00 0.00 0.00 95 1024.2
20180220144558 49 244 1.0 10.0 0.00 0.00 0.00 95 1024.2
20180220144048 48 231 2.0 10.0 0.00 0.00 0.00 95 1024.2
20180220143554 48 219 3.0 9.0 0.00 0.00 0.00 95 1024.3
20180220143053 48 303 2.0 6.0 0.00 0.00 0.00 95 1024.3
20180220142556 48 221 3.0 6.0 0.00 0.00 0.00 95 1024.3
20180220142043 48 300 3.0 10.0 0.00 0.00 0.00 95 1024.4
20180220141606 48 257 4.0 10.0 0.00 0.00 0.00 95 1024.3
20180220141055 48 221 4.0 10.0 0.00 0.00 0.00 95 1024.3
20180220140551 48 242 3.0 10.0 0.00 0.00 0.00 95 1024.3
20180220140055 48 257 4.0 10.0 0.00 0.00 0.00 95 1024.3
20180220135601 48 270 4.0 10.0 0.00 0.00 0.00 95 1024.2
20180220135055 48 272 3.0 8.0 0.00 0.00 0.00 95 1024.1
20180220134542 48 180 2.0 8.0 0.00 0.00 0.00 95 1024.0
20180220134051 47 263 2.0 9.0 0.00 0.00 0.00 95 1024.1
20180220133549 47 234 4.0 9.0 0.00 0.00 0.00 95 1024.1
20180220133047 47 299 2.0 9.0 0.00 0.00 0.00 95 1024.2
20180220132545 47 248 1.0 10.0 0.00 0.00 0.00 95 1024.2
20180220132049 47 176 4.0 11.0 0.00 0.00 0.00 95 1024.1
20180220131600 47 264 2.0 11.0 0.00 0.00 0.00 95 1024.3
20180220131051 47 265 3.0 8.0 0.00 0.00 0.00 95 1024.2
20180220130554 47 240 3.0 5.0 0.00 0.00 0.00 95 1024.1
20180220130057 47 278 2.0 12.0 0.00 0.00 0.00 95 1024.1
20180220125550 47 201 5.0 12.0 0.00 0.00 0.00 95 1024.1
20180220125057 47 275 1.0 8.0 0.00 0.00 0.00 95 1024.1
20180220124554 47 281 2.0 8.0 0.00 0.00 0.00 95 1024.2
20180220124045 46 238 3.0 7.0 0.00 0.00 0.00 95 1024.1
20180220123542 46 153 2.0 8.0 0.00 0.00 0.00 95 1024.0
20180220123053 46 226 3.0 8.0 0.00 0.00 0.00 95 1023.9
20180220122542 46 244 2.0 6.0 0.00 0.00 0.00 95 1023.7
20180220122049 46 201 1.0 6.0 0.00 0.00 0.00 95 1023.7
20180220121605 46 186 1.0 9.0 0.00 0.00 0.00 95 1023.6
20180220121045 46 233 2.0 9.0 0.00 0.00 0.00 95 1023.6
20180220120556 46 236 2.0 9.0 0.00 0.00 0.00 95 1023.6
20180220120042 45 196 1.0 10.0 0.00 0.00 0.00 95 1023.6
20180220115554 45 255 4.0 11.0 0.00 0.00 0.00 95 1023.5
20180220115042 45 207 1.0 7.0 0.00 0.00 0.00 95 1023.5
20180220114540 45 123 2.0 7.0 0.00 0.00 0.00 95 1023.6
20180220114059 44 257 1.0 6.0 0.00 0.00 0.00 95 1023.5
20180220113600 44 206 1.0 4.0 0.00 0.00 0.00 95 1023.6
20180220113052 44 220 1.0 4.0 0.00 0.00 0.00 95 1023.6
20180220112547 45 206 0.0 2.0 0.00 0.00 0.00 95 1023.5
20180220112056 45 228 1.0 4.0 0.00 0.00 0.00 95 1023.4
20180220111550 46 241 1.0 4.0 0.00 0.00 0.00 95 1023.4
20180220111040 46 222 1.0 8.0 0.00 0.00 0.00 95 1023.4
20180220110601 46 259 3.0 8.0 0.00 0.00 0.00 95 1023.4
20180220110051 46 186 0.0 4.0 0.00 0.00 0.00 95 1023.3
20180220105548 45 229 1.0 3.0 0.00 0.00 0.00 95 1023.2
20180220105056 46 203 1.0 7.0 0.00 0.00 0.00 95 1023.2
20180220104559 46 211 2.0 7.0 0.00 0.00 0.00 95 1023.1
20180220104045 46 229 1.0 4.0 0.00 0.00 0.00 95 1023.2
20180220103553 46 259 1.0 4.0 0.00 0.00 0.00 95 1023.0
20180220103055 46 240 0.0 2.0 0.00 0.00 0.00 95 1023.0
20180220102550 46 194 1.0 2.0 0.00 0.00 0.00 95 1022.9
20180220102042 46 269 0.0 2.0 0.00 0.00 0.00 95 1022.8
20180220101540 46 190 1.0 2.0 0.00 0.00 0.00 95 1022.8
20180220101049 46 188 0.0 1.0 0.00 0.00 0.00 95 1022.9
20180220100545 46 188 0.0 7.0 0.00 0.00 0.00 95 1022.9
20180220100053 46 190 0.0 7.0 0.00 0.00 0.00 95 1022.9
20180220095559 46 213 2.0 6.0 0.00 0.00 0.00 95 1022.9
20180220095044 46 234 1.0 6.0 0.00 0.00 0.00 95 1022.9
20180220094552 46 229 1.0 5.0 0.00 0.00 0.00 95 1022.9
20180220094051 46 277 2.0 5.0 0.00 0.00 0.00 95 1022.9
20180220093556 46 220 2.0 4.0 0.00 0.00 0.00 95 1022.8
20180220093055 46 178 1.0 7.0 0.00 0.00 0.00 95 1022.7
20180220092552 46 170 2.0 7.0 0.00 0.00 0.00 95 1022.7
20180220092049 46 200 3.0 7.0 0.00 0.00 0.00 95 1022.7
20180220091554 46 226 2.0 8.0 0.00 0.00 0.00 95 1022.8
20180220091052 46 198 1.0 8.0 0.00 0.00 0.00 95 1022.8
20180220090540 46 236 3.0 7.0 0.00 0.00 0.00 95 1022.8
20180220090045 46 168 2.0 8.0 0.00 0.00 0.00 95 1022.8
20180220085550 46 213 3.0 10.0 0.00 0.00 0.00 95 1022.8
20180220085059 46 261 3.0 10.0 0.00 0.00 0.00 95 1022.8
20180220084542 46 321 2.0 8.0 0.00 0.00 0.00 94 1022.7
20180220084040 46 184 3.0 10.0 0.00 0.00 0.00 95 1022.5
20180220083544 46 204 4.0 10.0 0.00 0.00 0.00 95 1022.7
20180220083043 45 219 2.0 7.0 0.00 0.00 0.00 94 1022.6
20180220082545 46 257 3.0 7.0 0.00 0.00 0.00 94 1022.6
20180220082054 46 153 2.0 7.0 0.00 0.00 0.00 95 1022.7
20180220081547 46 220 2.0 6.0 0.00 0.00 0.00 95 1022.8
20180220081045 46 188 1.0 11.0 0.00 0.00 0.00 94 1022.9
20180220080545 45 247 2.0 11.0 0.00 0.00 0.00 94 1022.9
20180220080049 45 228 2.0 5.0 0.00 0.00 0.00 95 1023.0
20180220075553 45 196 2.0 5.0 0.00 0.00 0.00 95 1023.1
20180220075058 45 245 2.0 5.0 0.00 0.00 0.00 95 1023.1
20180220074541 45 171 2.0 5.0 0.00 0.00 0.00 94 1023.1
20180220074044 45 297 1.0 4.0 0.00 0.00 0.00 94 1023.1
20180220073544 44 262 2.0 4.0 0.00 0.00 0.00 94 1023.3
20180220073045 44 267 0.0 3.0 0.00 0.00 0.00 94 1023.3
20180220072546 44 144 0.0 3.0 0.00 0.00 0.00 94 1023.3
20180220072041 44 144 0.0 2.0 0.00 0.00 0.00 94 1023.2
20180220071547 44 142 0.0 2.0 0.00 0.00 0.00 94 1023.3
20180220071044 44 220 0.0 5.0 0.00 0.00 0.00 94 1023.2
20180220070550 44 220 1.0 5.0 0.00 0.00 0.00 94 1023.1
20180220070055 44 211 1.0 3.0 0.00 0.00 0.00 94 1023.2
20180220065545 44 182 0.0 2.0 0.00 0.00 0.00 94 1023.3
20180220065056 44 180 1.0 2.0 0.00 0.00 0.00 94 1023.3
20180220064601 44 232 0.0 3.0 0.00 0.00 0.00 94 1023.3
20180220064047 44 186 0.0 3.0 0.00 0.00 0.00 94 1023.2
20180220063544 43 162 1.0 2.0 0.00 0.00 0.00 94 1023.2
20180220063056 43 153 1.0 2.0 0.00 0.00 0.00 94 1023.1
20180220062600 43 159 1.0 2.0 0.00 0.00 0.00 94 1023.1
20180220062050 43 157 1.0 2.0 0.00 0.00 0.00 94 1023.1
20180220061541 43 169 1.0 3.0 0.00 0.00 0.00 94 1023.2
20180220061049 43 238 1.0 3.0 0.00 0.00 0.00 94 1023.2
20180220060544 43 195 1.0 2.0 0.00 0.00 0.00 94 1023.2
20180220060054 43 195 0.0 2.0 0.00 0.00 0.00 94 1023.2
20180220055548 43 195 0.0 2.0 0.00 0.00 0.00 94 1023.3
20180220055040 43 195 0.0 1.0 0.00 0.00 0.00 94 1023.5
20180220054554 42 214 0.0 2.0 0.00 0.00 0.00 94 1023.5
20180220054041 42 214 0.0 2.0 0.00 0.00 0.00 94 1023.6
20180220053556 43 214 0.0 1.0 0.00 0.00 0.00 94 1023.6
20180220053057 43 214 0.0 1.0 0.00 0.00 0.00 94 1023.5
20180220052559 43 214 0.0 3.0 0.00 0.00 0.00 94 1023.7
20180220052042 43 214 1.0 3.0 0.00 0.00 0.00 94 1023.7
20180220051539 43 217 0.0 2.0 0.00 0.00 0.00 94 1023.8
20180220051052 42 269 0.0 3.0 0.00 0.00 0.00 94 1023.8
20180220050544 42 307 1.0 5.0 0.00 0.00 0.00 94 1023.7
20180220050052 42 311 3.0 5.0 0.00 0.00 0.00 94 1023.9
20180220045552 42 165 2.0 3.0 0.00 0.00 0.00 94 1023.2
20180220045058 42 121 1.0 3.0 0.00 0.00 0.00 94 1023.2
20180220044554 42 123 1.0 3.0 0.00 0.00 0.00 94 1023.4
20180220044053 42 123 1.0 3.0 0.00 0.00 0.00 94 1023.5
20180220043558 42 163 1.0 2.0 0.00 0.00 0.00 94 1023.7
20180220043054 41 161 1.0 2.0 0.00 0.00 0.00 94 1023.8
20180220042558 42 139 1.0 2.0 0.00 0.00 0.00 94 1024.0
20180220042041 42 136 0.0 2.0 0.00 0.00 0.00 94 1024.0
20180220041556 42 136 0.0 1.0 0.00 0.00 0.00 94 1024.2
20180220041052 42 136 0.0 1.0 0.00 0.00 0.00 94 1024.4
20180220040547 42 136 0.0 1.0 0.00 0.00 0.00 94 1024.5
20180220040049 42 136 0.0 2.0 0.00 0.00 0.00 94 1024.6
20180220035552 42 136 1.0 2.0 0.00 0.00 0.00 94 1024.5
20180220035048 43 136 0.0 2.0 0.00 0.00 0.00 94 1024.8
20180220034559 43 136 1.0 2.0 0.00 0.00 0.00 94 1024.8
20180220034053 42 136 0.0 0.0 0.00 0.00 0.00 94 1025.1
20180220033600 41 136 0.0 1.0 0.00 0.00 0.00 93 1025.2
20180220033044 41 136 0.0 2.0 0.00 0.00 0.00 93 1025.2
20180220032552 41 135 1.0 2.0 0.00 0.00 0.00 94 1025.3
20180220032058 42 136 0.0 2.0 0.00 0.00 0.00 93 1025.0
20180220031516 42 132 1.0 1.0 0.00 0.00 0.00 94 1025.0
20180220030547 43 132 0.0 2.0 0.00 0.00 0.00 93 1024.6
20180220030054 43 132 1.0 2.0 0.00 0.00 0.00 93 1024.4
20180220025559 43 132 1.0 2.0 0.00 0.00 0.00 93 1024.3
20180220025046 43 132 0.0 2.0 0.00 0.00 0.00 93 1024.5
20180220024557 43 132 0.0 2.0 0.00 0.00 0.00 93 1024.5
20180220024044 43 132 1.0 2.0 0.00 0.00 0.00 94 1024.5
20180220023555 43 126 1.0 2.0 0.00 0.00 0.00 93 1024.7
20180220023046 43 126 0.0 2.0 0.00 0.00 0.00 93 1024.9
20180220022541 43 126 0.0 2.0 0.00 0.00 0.00 93 1025.0
20180220022055 43 126 0.0 2.0 0.00 0.00 0.00 93 1024.9
20180220021559 43 126 0.0 2.0 0.00 0.00 0.00 93 1025.0
20180220021049 43 126 0.0 2.0 0.00 0.00 0.00 93 1024.9
20180220020545 43 126 1.0 3.0 0.00 0.00 0.00 93 1024.9
20180220020057 43 125 1.0 3.0 0.00 0.00 0.00 93 1025.0
20180220015553 43 209 0.0 2.0 0.00 0.00 0.00 93 1025.3
20180220015041 43 209 1.0 2.0 0.00 0.00 0.00 93 1025.4
20180220014558 43 209 1.0 2.0 0.00 0.00 0.00 93 1025.4
20180220014048 43 217 0.0 2.0 0.00 0.00 0.00 93 1025.4
20180220013542 43 213 0.0 5.0 0.00 0.00 0.00 93 1025.3
20180220013059 43 238 1.0 6.0 0.00 0.00 0.00 93 1025.2
20180220012553 43 157 1.0 6.0 0.00 0.00 0.00 93 1025.0
20180220012040 43 215 2.0 6.0 0.00 0.00 0.00 93 1025.3
20180220011601 43 181 2.0 4.0 0.00 0.00 0.00 93 1025.2
20180220011045 43 146 0.0 8.0 0.00 0.00 0.00 93 1025.2
20180220010542 43 182 1.0 8.0 0.00 0.00 0.00 93 1025.3
20180220010052 43 180 1.0 8.0 0.00 0.00 0.00 93 1025.3
20180220005542 43 144 2.0 4.0 0.00 0.00 0.00 93 1025.2
20180220005053 43 165 1.0 3.0 0.00 0.00 0.00 93 1025.0
20180220004558 43 213 1.0 9.0 0.00 0.00 0.00 93 1024.9
20180220004047 43 247 3.0 10.0 0.00 0.00 0.00 93 1024.8
20180220003541 43 196 2.0 4.0 0.00 0.00 0.00 93 1024.7
20180220003053 42 232 2.0 4.0 0.00 0.00 0.00 93 1024.6
20180220002544 42 162 2.0 5.0 0.00 0.00 0.00 93 1024.5
20180220002053 42 203 1.0 6.0 0.00 0.00 0.00 93 1024.5
20180220001545 42 165 2.0 4.0 0.00 0.00 0.00 93 1024.7
20180220001046 42 198 1.0 4.0 0.00 0.00 0.00 93 1024.9
20180220000559 42 202 1.0 4.0 0.00 0.00 0.00 93 1024.9
20180220000101 42 164 2.0 8.0 0.00 0.00 0.00 93 1024.9
20180219235540 42 177 2.0 8.0 0.00 0.00 0.00 93 1024.8
20180219235046 42 215 2.0 4.0 0.00 0.00 0.00 93 1024.8
20180219234554 42 134 2.0 4.0 0.00 0.00 0.00 93 1024.7
20180219234103 42 104 2.0 5.0 0.00 0.00 0.00 93 1024.7
20180219233558 42 153 2.0 5.0 0.00 0.00 0.00 93 1024.8
20180219233052 42 218 1.0 3.0 0.00 0.00 0.00 93 1024.7
20180219232539 42 158 2.0 4.0 0.00 0.00 0.00 93 1024.6
20180219232058 42 131 2.0 6.0 0.00 0.00 0.00 93 1024.7
20180219231550 42 159 1.0 6.0 0.00 0.00 0.00 93 1025.0
20180219231044 42 192 1.0 4.0 0.00 0.00 0.00 93 1025.1
20180219230554 42 113 2.0 4.0 0.00 0.00 0.00 93 1025.2
20180219230055 42 160 2.0 9.0 0.00 0.00 0.00 93 1025.2
20180219225552 42 145 1.0 9.0 0.00 0.00 0.00 93 1025.4
20180219225049 42 186 2.0 6.0 0.00 0.00 0.00 93 1025.3
20180219224556 42 146 2.0 6.0 0.00 0.00 0.00 93 1025.3
20180219224056 42 153 1.0 3.0 0.00 0.00 0.00 93 1025.3
20180219223553 42 166 1.0 3.0 0.00 0.00 0.00 93 1025.2
20180219223050 42 196 1.0 6.0 0.00 0.00 0.00 93 1025.4
20180219222549 42 186 2.0 6.0 0.00 0.00 0.00 93 1025.3
20180219222052 42 122 1.0 4.0 0.00 0.00 0.00 93 1025.3
20180219221551 42 175 1.0 4.0 0.00 0.00 0.00 93 1025.3
20180219221048 42 185 1.0 3.0 0.00 0.00 0.00 93 1025.3
20180219220601 42 184 1.0 3.0 0.00 0.00 0.00 93 1025.2
20180219220042 42 184 1.0 3.0 0.00 0.00 0.00 93 1025.4
20180219215558 42 200 1.0 3.0 0.00 0.00 0.00 93 1025.4
20180219215040 42 192 1.0 3.0 0.00 0.00 0.00 93 1025.4
20180219214540 42 155 1.0 3.0 0.00 0.00 0.00 93 1025.3
20180219214058 43 115 1.0 5.0 0.00 0.00 0.00 92 1025.5
20180219213542 43 128 2.0 5.0 0.00 0.00 0.00 92 1025.5
20180219213058 43 169 1.0 4.0 0.00 0.00 0.00 92 1025.6
20180219212549 43 167 1.0 3.0 0.00 0.00 0.00 92 1025.6
20180219212054 43 173 2.0 5.0 0.00 0.00 0.00 91 1025.8
20180219211542 43 211 2.0 5.0 0.00 0.00 0.00 91 1025.9
20180219211047 43 182 2.0 8.0 0.00 0.00 0.00 91 1025.9
20180219210543 43 111 1.0 8.0 0.00 0.00 0.00 90 1026.0
20180219210047 43 240 3.0 8.0 0.00 0.00 0.00 90 1026.0
20180219205542 43 167 3.0 7.0 0.00 0.00 0.00 90 1026.0
20180219205054 43 229 2.0 7.0 0.00 0.00 0.00 89 1026.0
20180219204602 43 111 2.0 6.0 0.00 0.00 0.00 90 1026.2
20180219204053 43 192 2.0 6.0 0.00 0.00 0.00 89 1026.3
20180219203601 44 211 1.0 8.0 0.00 0.00 0.00 89 1026.4
20180219203052 44 136 1.0 8.0 0.00 0.00 0.00 89 1026.2
20180219202546 44 138 2.0 6.0 0.00 0.00 0.00 89 1026.2
20180219202056 44 153 1.0 6.0 0.00 0.00 0.00 88 1026.2
20180219201602 44 215 3.0 6.0 0.00 0.00 0.00 88 1026.4
20180219201058 44 101 2.0 6.0 0.00 0.00 0.00 88 1026.5
20180219200602 44 136 2.0 8.0 0.00 0.00 0.00 88 1026.6
20180219200046 44 188 3.0 8.0 0.00 0.00 0.00 87 1026.5
20180219195545 44 128 1.0 6.0 0.00 0.00 0.00 87 1026.6